QPF
0.01 0.01 0.00 0.00 0.00 0.01 0.01 0.02 0.02 0.01 0.01 0.02 0.01 0.01 0.01 0.01 0.01 0.01 0.02 0.02 0.05 0.09 0.15 0.20 0.16 0.11 0.10 0.08 0.07 0.05 0.03 0.02 0.02 0.01 0.02 0.02 0.02 0.02 0.02 0.01 0.01 0.01 0.01
0.02 0.02 0.01 0.02 0.02 0.02 0.03 0.04 0.04 0.04 0.04 0.05 0.05 0.04 0.03 0.04 0.03 0.03 0.03 0.03 0.03 0.05 0.09 0.14 0.17 0.16 0.16 0.11 0.09 0.07 0.05 0.04 0.03 0.03 0.03 0.03 0.03 0.02 0.02 0.02 0.02 0.01 0.01
0.04 0.03 0.04 0.05 0.06 0.06 0.07 0.07 0.06 0.06 0.05 0.06 0.07 0.06 0.04 0.04 0.04 0.05 0.05 0.06 0.06 0.04 0.07 0.11 0.15 0.18 0.19 0.21 0.18 0.13 0.11 0.08 0.06 0.06 0.06 0.05 0.04 0.03 0.03 0.02 0.02 0.02 0.02
0.04 0.05 0.06 0.09 0.11 0.10 0.10 0.09 0.08 0.07 0.08 0.08 0.08 0.07 0.05 0.05 0.04 0.04 0.04 0.06 0.08 0.09 0.10 0.10 0.13 0.15 0.17 0.20 0.20 0.18 0.16 0.13 0.11 0.10 0.10 0.08 0.06 0.05 0.04 0.04 0.04 0.03 0.03
0.06 0.07 0.10 0.12 0.13 0.14 0.13 0.11 0.10 0.09 0.10 0.11 0.09 0.07 0.06 0.04 0.04 0.04 0.04 0.05 0.07 0.09 0.10 0.11 0.12 0.14 0.16 0.20 0.20 0.21 0.22 0.20 0.19 0.18 0.15 0.12 0.09 0.08 0.08 0.07 0.05 0.04 0.03
0.08 0.10 0.12 0.12 0.13 0.14 0.14 0.14 0.14 0.11 0.10 0.10 0.07 0.05 0.05 0.05 0.04 0.04 0.04 0.04 0.05 0.05 0.05 0.07 0.12 0.13 0.14 0.18 0.21 0.24 0.25 0.26 0.25 0.24 0.21 0.17 0.13 0.12 0.10 0.08 0.06 0.05 0.05
0.12 0.13 0.14 0.15 0.15 0.15 0.14 0.15 0.13 0.11 0.09 0.08 0.08 0.07 0.05 0.04 0.03 0.03 0.03 0.04 0.04 0.04 0.05 0.07 0.08 0.10 0.12 0.15 0.17 0.19 0.20 0.24 0.28 0.30 0.30 0.27 0.22 0.18 0.16 0.13 0.11 0.10 0.09
0.18 0.18 0.18 0.18 0.17 0.16 0.14 0.12 0.11 0.10 0.09 0.09 0.09 0.08 0.06 0.06 0.05 0.03 0.03 0.03 0.04 0.04 0.05 0.06 0.07 0.08 0.10 0.12 0.13 0.12 0.14 0.19 0.25 0.30 0.35 0.35 0.34 0.32 0.30 0.26 0.23 0.21 0.19
0.23 0.24 0.23 0.22 0.18 0.16 0.14 0.13 0.13 0.12 0.11 0.10 0.10 0.11 0.10 0.09 0.07 0.06 0.04 0.04 0.04 0.03 0.03 0.04 0.05 0.07 0.07 0.08 0.09 0.10 0.12 0.15 0.19 0.23 0.29 0.33 0.36 0.37 0.38 0.38 0.35 0.31 0.26
0.27 0.27 0.25 0.23 0.21 0.19 0.17 0.16 0.13 0.10 0.09 0.09 0.08 0.08 0.09 0.10 0.09 0.08 0.06 0.04 0.03 0.02 0.02 0.03 0.03 0.04 0.06 0.08 0.09 0.10 0.11 0.12 0.14 0.16 0.20 0.25 0.29 0.34 0.38 0.40 0.39 0.36 0.31
0.23 0.23 0.24 0.25 0.25 0.22 0.18 0.13 0.10 0.08 0.07 0.06 0.07 0.07 0.07 0.07 0.06 0.06 0.05 0.04 0.04 0.03 0.03 0.02 0.02 0.03 0.04 0.06 0.07 0.09 0.10 0.10 0.11 0.12 0.13 0.15 0.19 0.23 0.27 0.30 0.33 0.34 0.32
0.22 0.20 0.21 0.20 0.18 0.16 0.13 0.11 0.08 0.07 0.06 0.06 0.06 0.07 0.06 0.05 0.05 0.05 0.04 0.03 0.03 0.02 0.02 0.02 0.02 0.03 0.03 0.04 0.06 0.08 0.08 0.08 0.09 0.11 0.13 0.16 0.19 0.22 0.25 0.28 0.30 0.32 0.32
0.22 0.19 0.17 0.15 0.12 0.10 0.09 0.08 0.07 0.06 0.05 0.05 0.04 0.04 0.03 0.03 0.03 0.04 0.04 0.03 0.03 0.02 0.02 0.02 0.02 0.02 0.02 0.03 0.05 0.07 0.07 0.08 0.09 0.10 0.12 0.14 0.16 0.18 0.21 0.24 0.26 0.27 0.26
0.20 0.17 0.13 0.10 0.09 0.07 0.06 0.05 0.05 0.04 0.03 0.03 0.02 0.02 0.02 0.02 0.02 0.02 0.02 0.03 0.03 0.02 0.02 0.01 0.01 0.02 0.02 0.03 0.05 0.07 0.06 0.08 0.08 0.09 0.09 0.10 0.12 0.14 0.16 0.18 0.18 0.18 0.18
0.16 0.14 0.12 0.08 0.06 0.04 0.03 0.02 0.02 0.02 0.01 0.01 0.01 0.01 0.02 0.02 0.01 0.01 0.01 0.02 0.02 0.01 0.01 0.01 0.01 0.02 0.02 0.03 0.06 0.05 0.05 0.07 0.07 0.07 0.08 0.08 0.09 0.10 0.12 0.13 0.14 0.15 0.15
0.09 0.08 0.07 0.06 0.04 0.03 0.02 0.01 0.01 0.01 0.00 0.00 0.00 0.00 0.00 0.00 0.00 0.00 0.00 0.00 0.00 0.01 0.01 0.01 0.01 0.02 0.03 0.03 0.05 0.04 0.05 0.06 0.06 0.06 0.06 0.07 0.07 0.07 0.08 0.09 0.10 0.11 0.10
0.06 0.05 0.03 0.03 0.03 0.02 0.01 0.01 0.00 0.00 0.00 0.00 0.00 0.00 0.00 0.00 0.00 0.00 0.00 0.00 0.00 0.00 0.01 0.01 0.01 0.02 0.02 0.03 0.03 0.03 0.03 0.04 0.04 0.05 0.04 0.04 0.04 0.05 0.05 0.06 0.05 0.04 0.04
0.03 0.02 0.02 0.01 0.01 0.01 0.01 0.01 0.00 0.00 0.00 0.00 0.00 0.00 0.00 0.00 0.00 0.00 0.00 0.00 0.01 0.01 0.01 0.01 0.01 0.02 0.02 0.02 0.02 0.02 0.01 0.02 0.02 0.03 0.02 0.02 0.02 0.02 0.03 0.02 0.02 0.01 0.01
0.02 0.01 0.01 0.01 0.01 0.01 0.00 0.00 0.00 0.00 0.00 0.00 0.00 0.00 0.00 0.00 0.00 0.00 0.00 0.00 0.00 0.00 0.01 0.01 0.01 0.01 0.02 0.02 0.02 0.02 0.02 0.02 0.02 0.01 0.01 0.01 0.01 0.01 0.01 0.00 0.00 0.00 0.00
0.02 0.01 0.01 0.01 0.01 0.01 0.00 0.00 0.00 0.00 0.00 0.00 0.00 0.00 0.00 0.00 0.00 0.00 0.00 0.00 0.00 0.00 0.00 0.01 0.01 0.01 0.01 0.01 0.02 0.02 0.02 0.03 0.02 0.01 0.01 0.01 0.01 0.01 0.00 0.00 0.00 0.00 0.00
0.01 0.00 0.00 0.00 0.00 0.00 0.00 0.00 0.00 0.00 0.00 0.00 0.00 0.00 0.00 0.00 0.00 0.00 0.00 0.00 0.00 0.00 0.00 0.00 0.00 0.01 0.01 0.02 0.02 0.02 0.02 0.03 0.03 0.02 0.03 0.03 0.04 0.05 0.04 0.02 0.00 0.00 0.00
0.00 0.00 0.00 0.00 0.00 0.00 0.00 0.00 0.00 0.00 0.00 0.00 0.00 0.00 0.00 0.00 0.00 0.00 0.00 0.00 0.00 0.00 0.00 0.01 0.01 0.02 0.03 0.02 0.02 0.02 0.02 0.03 0.05 0.04 0.03 0.04 0.04 0.04 0.03 0.02 0.01 0.00 0.00
0.00 0.00 0.00 0.00 0.00 0.00 0.00 0.00 0.00 0.00 0.00 0.00 0.00 0.00 0.00 0.00 0.00 0.00 0.00 0.00 0.00 0.00 0.00 0.00 0.02 0.03 0.03 0.03 0.03 0.03 0.04 0.03 0.05 0.04 0.03 0.05 0.04 0.04 0.02 0.00 0.00 0.00 0.00
0.00 0.00 0.00 0.00 0.00 0.00 0.00 0.00 0.00 0.00 0.00 0.00 0.00 0.00 0.00 0.00 0.00 0.00 0.00 0.01 0.01 0.01 0.00 0.00 0.01 0.02 0.01 0.02 0.02 0.02 0.03 0.03 0.06 0.06 0.03 0.05 0.04 0.03 0.02 0.02 0.00 0.00 0.00
0.00 0.00 0.00 0.00 0.00 0.00 0.00 0.00 0.00 0.00 0.00 0.00 0.00 0.00 0.00 0.00 0.00 0.00 0.00 0.02 0.02 0.02 0.00 0.00 0.00 0.00 0.00 0.00 0.00 0.02 0.04 0.05 0.07 0.08 0.05 0.05 0.04 0.03 0.03 0.03 0.01 0.00 0.00
0.01 0.00 0.00 0.00 0.00 0.00 0.00 0.00 0.00 0.00 0.00 0.00 0.00 0.00 0.00 0.00 0.00 0.00 0.01 0.02 0.02 0.02 0.02 0.02 0.02 0.02 0.02 0.02 0.01 0.02 0.04 0.06 0.06 0.08 0.06 0.05 0.05 0.03 0.04 0.04 0.03 0.02 0.02
MSLP
1015.04 1015.40 1015.75 1016.10 1016.43 1016.73 1017.00 1017.23 1017.42 1017.54 1017.61 1017.62 1017.59 1017.53 1017.46 1017.41 1017.39 1017.43 1017.53 1017.69 1017.90 1018.13 1018.38 1018.62 1018.85 1019.06 1019.24 1019.41 1019.56 1019.70 1019.84 1019.97 1020.09 1020.20 1020.31 1020.41 1020.51 1020.61 1020.72 1020.84 1020.95 1021.08 1021.20
1014.62 1014.97 1015.34 1015.72 1016.08 1016.43 1016.75 1017.03 1017.25 1017.42 1017.53 1017.57 1017.56 1017.50 1017.42 1017.33 1017.26 1017.22 1017.23 1017.30 1017.42 1017.59 1017.78 1018.00 1018.22 1018.45 1018.66 1018.87 1019.07 1019.26 1019.44 1019.62 1019.78 1019.92 1020.06 1020.17 1020.27 1020.37 1020.46 1020.55 1020.65 1020.76 1020.87
1014.27 1014.62 1015.01 1015.42 1015.82 1016.22 1016.58 1016.91 1017.18 1017.39 1017.53 1017.61 1017.61 1017.56 1017.46 1017.34 1017.22 1017.11 1017.04 1017.02 1017.05 1017.14 1017.28 1017.46 1017.67 1017.89 1018.12 1018.35 1018.57 1018.79 1019.01 1019.21 1019.39 1019.55 1019.69 1019.80 1019.89 1019.96 1020.01 1020.07 1020.13 1020.20 1020.30
1013.99 1014.34 1014.75 1015.19 1015.63 1016.07 1016.48 1016.84 1017.15 1017.39 1017.57 1017.67 1017.70 1017.66 1017.56 1017.43 1017.27 1017.12 1016.99 1016.91 1016.89 1016.92 1017.01 1017.14 1017.31 1017.51 1017.72 1017.95 1018.16 1018.38 1018.59 1018.78 1018.96 1019.10 1019.22 1019.30 1019.35 1019.37 1019.37 1019.37 1019.38 1019.41 1019.48
1013.77 1014.13 1014.56 1015.03 1015.51 1015.98 1016.42 1016.80 1017.13 1017.40 1017.59 1017.72 1017.77 1017.76 1017.69 1017.57 1017.43 1017.28 1017.14 1017.04 1016.99 1016.99 1017.04 1017.14 1017.27 1017.43 1017.60 1017.77 1017.95 1018.12 1018.28 1018.43 1018.56 1018.66 1018.73 1018.75 1018.73 1018.68 1018.61 1018.53 1018.48 1018.46 1018.49
1013.63 1014.01 1014.47 1014.96 1015.47 1015.96 1016.41 1016.80 1017.13 1017.40 1017.61 1017.75 1017.83 1017.86 1017.84 1017.77 1017.68 1017.57 1017.48 1017.41 1017.37 1017.37 1017.41 1017.49 1017.58 1017.69 1017.80 1017.90 1018.01 1018.10 1018.19 1018.26 1018.31 1018.33 1018.31 1018.25 1018.15 1018.01 1017.85 1017.69 1017.56 1017.48 1017.47
1013.63 1014.03 1014.52 1015.04 1015.57 1016.05 1016.49 1016.87 1017.19 1017.44 1017.64 1017.80 1017.91 1017.98 1018.02 1018.02 1018.01 1017.99 1017.98 1017.98 1017.99 1018.03 1018.09 1018.16 1018.22 1018.28 1018.33 1018.36 1018.38 1018.38 1018.37 1018.34 1018.29 1018.21 1018.10 1017.94 1017.74 1017.50 1017.25 1017.00 1016.80 1016.66 1016.62
1013.82 1014.27 1014.78 1015.32 1015.85 1016.32 1016.73 1017.08 1017.36 1017.58 1017.76 1017.91 1018.04 1018.15 1018.25 1018.34 1018.42 1018.50 1018.58 1018.67 1018.77 1018.87 1018.97 1019.05 1019.11 1019.13 1019.12 1019.09 1019.02 1018.93 1018.83 1018.70 1018.56 1018.38 1018.17 1017.91 1017.62 1017.29 1016.95 1016.63 1016.36 1016.17 1016.08
1014.26 1014.76 1015.31 1015.85 1016.36 1016.81 1017.18 1017.47 1017.70 1017.88 1018.02 1018.15 1018.28 1018.42 1018.56 1018.71 1018.87 1019.04 1019.23 1019.41 1019.59 1019.76 1019.91 1020.02 1020.08 1020.10 1020.06 1019.98 1019.86 1019.70 1019.52 1019.32 1019.10 1018.84 1018.55 1018.22 1017.85 1017.45 1017.05 1016.67 1016.35 1016.11 1016.00
1014.99 1015.53 1016.10 1016.64 1017.12 1017.52 1017.83 1018.07 1018.23 1018.35 1018.45 1018.55 1018.66 1018.79 1018.95 1019.14 1019.35 1019.58 1019.83 1020.09 1020.34 1020.57 1020.76 1020.91 1020.99 1021.02 1020.97 1020.88 1020.73 1020.55 1020.33 1020.09 1019.83 1019.53 1019.20 1018.82 1018.41 1017.97 1017.53 1017.12 1016.77 1016.51 1016.36
1015.97 1016.55 1017.11 1017.62 1018.06 1018.40 1018.66 1018.82 1018.93 1018.99 1019.03 1019.09 1019.16 1019.27 1019.42 1019.61 1019.83 1020.09 1020.36 1020.65 1020.93 1021.19 1021.41 1021.59 1021.70 1021.74 1021.72 1021.63 1021.50 1021.32 1021.11 1020.87 1020.61 1020.31 1019.97 1019.59 1019.17 1018.73 1018.29 1017.88 1017.52 1017.25 1017.09
1017.14 1017.71 1018.25 1018.71 1019.09 1019.37 1019.56 1019.66 1019.71 1019.72 1019.72 1019.73 1019.76 1019.84 1019.95 1020.11 1020.30 1020.53 1020.79 1021.06 1021.33 1021.59 1021.82 1022.00 1022.13 1022.19 1022.19 1022.14 1022.04 1021.90 1021.72 1021.52 1021.29 1021.02 1020.71 1020.37 1019.99 1019.58 1019.17 1018.78 1018.44 1018.18 1018.02
1018.38 1018.92 1019.39 1019.79 1020.10 1020.31 1020.43 1020.48 1020.49 1020.46 1020.43 1020.41 1020.41 1020.44 1020.51 1020.62 1020.76 1020.94 1021.14 1021.36 1021.58 1021.79 1021.99 1022.15 1022.27 1022.35 1022.37 1022.35 1022.29 1022.20 1022.08 1021.93 1021.75 1021.54 1021.29 1021.00 1020.68 1020.33 1019.98 1019.64 1019.34 1019.11 1018.94
1019.57 1020.04 1020.44 1020.75 1020.97 1021.12 1021.19 1021.20 1021.18 1021.14 1021.10 1021.06 1021.05 1021.06 1021.09 1021.15 1021.23 1021.33 1021.45 1021.59 1021.73 1021.88 1022.01 1022.13 1022.21 1022.27 1022.30 1022.29 1022.26 1022.21 1022.14 1022.04 1021.92 1021.78 1021.59 1021.38 1021.13 1020.86 1020.58 1020.31 1020.06 1019.86 1019.71
1020.64 1021.01 1021.31 1021.53 1021.67 1021.75 1021.78 1021.77 1021.75 1021.71 1021.68 1021.66 1021.65 1021.65 1021.67 1021.68 1021.71 1021.75 1021.79 1021.83 1021.88 1021.93 1021.98 1022.02 1022.05 1022.06 1022.06 1022.05 1022.03 1021.99 1021.95 1021.89 1021.82 1021.72 1021.60 1021.45 1021.28 1021.09 1020.89 1020.69 1020.51 1020.35 1020.22
1021.52 1021.79 1021.98 1022.11 1022.19 1022.22 1022.22 1022.20 1022.19 1022.18 1022.18 1022.19 1022.21 1022.23 1022.24 1022.25 1022.24 1022.22 1022.19 1022.15 1022.10 1022.05 1022.00 1021.95 1021.89 1021.84 1021.79 1021.74 1021.68 1021.64 1021.59 1021.55 1021.49 1021.43 1021.35 1021.26 1021.15 1021.03 1020.90 1020.77 1020.66 1020.55 1020.45
1022.20 1022.38 1022.49 1022.56 1022.58 1022.58 1022.56 1022.55 1022.55 1022.57 1022.62 1022.67 1022.73 1022.78 1022.82 1022.83 1022.81 1022.76 1022.68 1022.57 1022.44 1022.30 1022.15 1022.00 1021.85 1021.71 1021.58 1021.46 1021.36 1021.27 1021.19 1021.12 1021.06 1021.00 1020.94 1020.88 1020.81 1020.75 1020.68 1020.62 1020.57 1020.51 1020.44
1022.73 1022.84 1022.91 1022.93 1022.92 1022.91 1022.89 1022.88 1022.90 1022.95 1023.03 1023.13 1023.23 1023.32 1023.39 1023.42 1023.41 1023.35 1023.24 1023.08 1022.89 1022.67 1022.44 1022.19 1021.95 1021.72 1021.50 1021.30 1021.13 1020.97 1020.84 1020.73 1020.64 1020.56 1020.49 1020.44 1020.40 1020.38 1020.36 1020.36 1020.35 1020.34 1020.31
1023.15 1023.24 1023.29 1023.31 1023.30 1023.28 1023.27 1023.27 1023.30 1023.36 1023.46 1023.58 1023.71 1023.83 1023.93 1023.99 1024.00 1023.94 1023.82 1023.64 1023.40 1023.13 1022.82 1022.50 1022.18 1021.87 1021.57 1021.29 1021.04 1020.82 1020.62 1020.45 1020.31 1020.20 1020.11 1020.05 1020.03 1020.02 1020.04 1020.08 1020.12 1020.15 1020.15
1023.51 1023.62 1023.69 1023.73 1023.74 1023.73 1023.72 1023.73 1023.75 1023.81 1023.91 1024.03 1024.17 1024.31 1024.42 1024.50 1024.52 1024.47 1024.35 1024.16 1023.90 1023.59 1023.24 1022.87 1022.49 1022.11 1021.75 1021.41 1021.09 1020.81 1020.55 1020.32 1020.13 1019.98 1019.87 1019.79 1019.76 1019.76 1019.80 1019.87 1019.94 1020.00 1020.03
1023.83 1023.99 1024.11 1024.19 1024.23 1024.24 1024.24 1024.24 1024.25 1024.29 1024.36 1024.46 1024.58 1024.71 1024.83 1024.91 1024.94 1024.90 1024.78 1024.59 1024.32 1024.00 1023.63 1023.23 1022.81 1022.40 1021.99 1021.61 1021.25 1020.92 1020.62 1020.34 1020.11 1019.92 1019.77 1019.67 1019.63 1019.63 1019.68 1019.75 1019.84 1019.92 1019.98
1024.12 1024.33 1024.52 1024.65 1024.73 1024.77 1024.77 1024.75 1024.74 1024.74 1024.77 1024.83 1024.93 1025.03 1025.13 1025.20 1025.23 1025.19 1025.07 1024.88 1024.62 1024.29 1023.91 1023.51 1023.09 1022.66 1022.25 1021.84 1021.46 1021.11 1020.78 1020.48 1020.21 1019.99 1019.82 1019.69 1019.63 1019.62 1019.65 1019.73 1019.82 1019.90 1019.96
1024.35 1024.63 1024.87 1025.06 1025.18 1025.23 1025.23 1025.20 1025.16 1025.13 1025.12 1025.14 1025.19 1025.26 1025.33 1025.38 1025.40 1025.35 1025.23 1025.04 1024.78 1024.46 1024.09 1023.69 1023.28 1022.87 1022.46 1022.07 1021.69 1021.33 1020.99 1020.68 1020.39 1020.15 1019.95 1019.80 1019.71 1019.68 1019.69 1019.75 1019.82 1019.89 1019.93
1024.53 1024.86 1025.14 1025.36 1025.51 1025.58 1025.59 1025.55 1025.49 1025.43 1025.39 1025.37 1025.39 1025.42 1025.46 1025.49 1025.48 1025.41 1025.29 1025.09 1024.83 1024.52 1024.16 1023.78 1023.39 1023.00 1022.61 1022.24 1021.88 1021.54 1021.20 1020.89 1020.60 1020.34 1020.12 1019.94 1019.82 1019.75 1019.73 1019.75 1019.79 1019.82 1019.84
1024.65 1025.00 1025.31 1025.56 1025.73 1025.81 1025.83 1025.79 1025.73 1025.65 1025.59 1025.55 1025.54 1025.54 1025.55 1025.55 1025.52 1025.43 1025.29 1025.08 1024.82 1024.51 1024.16 1023.80 1023.43 1023.06 1022.71 1022.36 1022.03 1021.71 1021.39 1021.08 1020.79 1020.52 1020.28 1020.08 1019.92 1019.81 1019.74 1019.71 1019.69 1019.68 1019.64
1024.75 1025.10 1025.41 1025.67 1025.85 1025.95 1025.98 1025.95 1025.89 1025.82 1025.75 1025.71 1025.68 1025.67 1025.66 1025.63 1025.57 1025.46 1025.29 1025.07 1024.79 1024.47 1024.13 1023.77 1023.42 1023.07 1022.75 1022.43 1022.12 1021.82 1021.52 1021.23 1020.94 1020.66 1020.40 1020.17 1019.97 1019.82 1019.69 1019.60 1019.52 1019.44 1019.35
Thickness
5732 5732 5731 5730 5731 5731 5729 5727 5728 5727 5726 5726 5726 5727 5727 5728 5727 5727 5726 5722 5718 5715 5713 5711 5709 5707 5706 5704 5702 5700 5699 5698 5696 5694 5693 5692 5690 5689 5688 5686 5684 5682 5681
5730 5730 5729 5727 5728 5728 5728 5727 5726 5724 5724 5724 5724 5724 5724 5725 5724 5723 5723 5721 5717 5715 5712 5710 5709 5707 5705 5703 5701 5700 5698 5696 5694 5693 5691 5689 5687 5686 5684 5682 5681 5679 5677
5727 5727 5727 5725 5725 5725 5723 5723 5723 5722 5721 5721 5721 5721 5721 5721 5721 5719 5719 5718 5717 5714 5712 5710 5708 5706 5704 5702 5700 5698 5696 5694 5693 5691 5689 5686 5684 5682 5680 5678 5677 5675 5673
5724 5723 5724 5724 5722 5721 5720 5720 5720 5719 5719 5718 5718 5718 5718 5717 5716 5715 5715 5715 5714 5713 5711 5708 5707 5705 5703 5701 5699 5697 5695 5692 5690 5688 5687 5684 5682 5679 5676 5674 5672 5670 5667
5721 5721 5721 5721 5719 5718 5717 5718 5718 5716 5715 5714 5714 5714 5714 5714 5713 5712 5711 5710 5709 5708 5707 5705 5703 5702 5700 5698 5697 5695 5693 5690 5688 5685 5683 5680 5678 5675 5673 5670 5667 5664 5661
5719 5718 5717 5716 5716 5715 5714 5713 5712 5711 5711 5710 5711 5711 5710 5709 5708 5707 5706 5705 5703 5702 5701 5700 5699 5698 5696 5694 5692 5691 5689 5687 5684 5682 5679 5676 5673 5671 5668 5664 5661 5657 5653
5716 5715 5714 5712 5712 5711 5710 5710 5708 5706 5706 5706 5704 5703 5704 5704 5702 5700 5699 5697 5696 5694 5692 5691 5690 5690 5689 5687 5686 5685 5683 5682 5679 5677 5674 5671 5668 5665 5662 5658 5654 5650 5646
5710 5710 5709 5708 5707 5706 5704 5703 5702 5701 5700 5699 5697 5695 5694 5695 5694 5693 5691 5687 5686 5685 5683 5682 5680 5679 5679 5678 5676 5675 5674 5673 5671 5668 5666 5663 5661 5658 5655 5651 5647 5642 5637
5702 5702 5701 5700 5700 5700 5698 5696 5696 5695 5693 5692 5692 5690 5686 5685 5685 5683 5679 5677 5675 5674 5673 5671 5670 5668 5667 5666 5665 5664 5663 5662 5660 5658 5656 5653 5651 5648 5646 5643 5639 5634 5628
5690 5691 5690 5689 5689 5689 5688 5688 5687 5687 5686 5684 5683 5682 5681 5680 5676 5673 5670 5667 5664 5662 5660 5659 5657 5655 5654 5653 5651 5650 5650 5649 5647 5645 5643 5640 5638 5636 5634 5631 5627 5622 5617
5677 5678 5678 5677 5677 5676 5676 5675 5675 5676 5676 5675 5674 5673 5672 5671 5668 5665 5661 5657 5653 5649 5647 5645 5643 5641 5640 5639 5638 5636 5635 5633 5631 5629 5627 5624 5622 5620 5617 5615 5611 5608 5602
5665 5664 5664 5665 5664 5664 5663 5662 5662 5661 5661 5660 5660 5659 5659 5658 5655 5653 5651 5647 5643 5638 5635 5632 5630 5628 5626 5625 5623 5620 5618 5616 5614 5612 5610 5608 5605 5603 5600 5598 5595 5591 5587
5651 5650 5651 5652 5650 5649 5649 5648 5648 5648 5647 5646 5645 5645 5644 5643 5643 5642 5640 5637 5632 5628 5624 5620 5617 5615 5612 5610 5608 5605 5603 5600 5598 5595 5593 5590 5587 5585 5582 5579 5576 5573 5570
5638 5638 5638 5638 5637 5636 5635 5635 5635 5634 5633 5633 5632 5631 5632 5631 5630 5630 5629 5627 5624 5620 5614 5608 5605 5601 5598 5595 5592 5589 5588 5584 5581 5578 5575 5573 5569 5566 5564 5561 5558 5555 5552
5627 5626 5625 5625 5624 5623 5623 5624 5622 5621 5621 5621 5620 5619 5619 5617 5616 5616 5615 5615 5613 5610 5603 5596 5592 5587 5583 5580 5576 5575 5572 5568 5564 5561 5558 5555 5552 5549 5546 5544 5541 5538 5535
5616 5615 5614 5613 5612 5611 5612 5612 5611 5609 5609 5608 5607 5606 5606 5605 5603 5602 5602 5601 5599 5597 5591 5584 5578 5573 5568 5566 5562 5559 5557 5553 5549 5545 5541 5538 5535 5531 5529 5527 5525 5522 5519
5604 5603 5603 5601 5601 5600 5599 5599 5599 5598 5597 5596 5595 5593 5591 5589 5590 5590 5588 5586 5584 5582 5577 5571 5565 5560 5555 5551 5548 5545 5543 5539 5537 5530 5526 5522 5519 5516 5513 5511 5509 5507 5504
5593 5591 5591 5590 5589 5588 5588 5588 5588 5586 5585 5583 5581 5580 5578 5576 5574 5573 5572 5570 5567 5563 5562 5555 5551 5548 5542 5538 5534 5531 5530 5527 5523 5518 5513 5509 5505 5503 5500 5498 5496 5494 5491
5581 5580 5579 5578 5578 5577 5577 5576 5575 5574 5572 5570 5568 5566 5564 5562 5561 5558 5556 5555 5553 5551 5546 5544 5540 5535 5532 5527 5524 5521 5519 5513 5512 5508 5503 5498 5495 5492 5489 5487 5484 5483 5481
5569 5568 5568 5567 5567 5566 5566 5565 5563 5561 5559 5557 5555 5553 5550 5548 5545 5543 5543 5541 5539 5537 5534 5533 5530 5526 5522 5517 5513 5512 5509 5505 5503 5500 5495 5492 5488 5485 5482 5479 5476 5474 5473
5558 5557 5557 5556 5555 5554 5552 5552 5552 5550 5548 5546 5543 5540 5536 5531 5527 5527 5528 5526 5525 5525 5525 5522 5520 5517 5512 5507 5504 5501 5499 5497 5495 5492 5490 5488 5485 5483 5478 5474 5471 5468 5466
5547 5546 5546 5545 5543 5540 5536 5536 5539 5539 5538 5535 5533 5530 5527 5523 5518 5515 5512 5509 5507 5509 5509 5509 5509 5504 5500 5497 5493 5492 5491 5489 5488 5485 5484 5484 5482 5479 5476 5472 5464 5462 5459
5536 5535 5534 5533 5531 5526 5524 5524 5524 5528 5527 5523 5521 5520 5519 5514 5511 5509 5505 5501 5499 5495 5492 5493 5496 5492 5491 5488 5485 5485 5482 5481 5480 5479 5479 5479 5478 5475 5472 5466 5460 5457 5454
5527 5526 5524 5523 5521 5515 5513 5513 5513 5517 5517 5514 5511 5510 5508 5505 5500 5497 5500 5499 5497 5494 5490 5488 5486 5485 5483 5480 5478 5477 5476 5476 5476 5474 5473 5474 5474 5472 5470 5464 5458 5455 5452
5518 5517 5516 5515 5513 5508 5504 5504 5504 5511 5510 5508 5505 5501 5499 5497 5489 5488 5493 5494 5493 5490 5486 5482 5479 5478 5475 5473 5471 5472 5475 5476 5476 5474 5471 5471 5471 5470 5468 5464 5459 5455 5451
5511 5510 5508 5507 5505 5502 5496 5496 5496 5507 5504 5504 5500 5496 5489 5487 5484 5483 5487 5488 5487 5485 5483 5483 5480 5478 5476 5474 5470 5468 5472 5473 5474 5472 5469 5468 5469 5469 5467 5465 5462 5458 5454